Location: Altenst�hlen
(53.5567°N, 8.9425°E)
Time: 08:52:50
(UTC+00:00)

STARLINK-44 - Pass Details

Date: 23 October 2019
Orbit: 548 x 551 km, 53.0° (Epoch: 19 November)

Event Time Altitude Azimuth Distance (km) Brightness Sun altitude
Rises 18:04:50 0° 279° (W) 2,721 8.9 -17.6°
Reaches altitude 10° 18:07:04 10° 277° (W) 1,826 7.6 -17.9°
Maximum altitude 18:11:12 71° 195° (SSW) 584 3.7 -18.5°
Enters shadow 18:12:25 43° 123° (ESE) 777 3.9 -18.7°
